Temperature
8 8 8 9 9 9 9 9 9 9 9 10 10 10 10 10 10 10 11 11 11 11 11 11 11 11 11 11 11 11 11 11 11 11 11 10 10 10 10 10 10 10 10
7 8 8 8 8 8 9 9 9 9 9 9 9 9 10 10 10 10 10 10 10 10 10 10 10 10 10 10 10 10 10 10 11 10 10 10 10 10 10 10 10 10 10
7 7 7 7 8 8 8 8 8 8 8 8 9 9 9 9 9 9 10 10 10 10 10 10 10 10 10 10 10 10 10 10 10 10 10 10 10 10 10 10 10 10 10
6 6 7 7 7 7 7 7 8 8 8 8 8 8 9 9 9 9 9 9 9 9 9 9 9 9 10 10 10 10 10 10 10 10 10 10 10 10 10 10 10 10 10
6 6 6 6 6 7 7 7 7 7 7 7 8 8 8 8 8 8 9 9 9 9 9 9 9 9 9 9 10 9 10 10 10 10 10 9 9 9 9 9 9 9 9
5 5 5 6 6 6 6 6 6 7 7 7 7 7 7 8 8 8 8 8 8 8 8 8 9 9 9 9 9 9 9 9 9 9 9 9 9 9 9 9 9 9 9
4 5 5 5 5 5 5 6 6 6 6 6 6 7 7 7 7 8 8 8 8 8 8 8 8 8 9 9 9 9 9 9 9 9 9 9 9 9 9 9 9 9 9
4 4 4 4 4 5 5 5 5 5 5 5 5 5 6 6 7 7 7 7 7 8 8 8 8 8 8 8 9 9 9 9 9 9 9 9 9 9 9 9 9 9 9
3 3 3 4 4 4 4 4 4 4 4 5 4 4 5 5 5 6 7 7 7 7 7 7 7 8 8 8 8 8 8 8 8 8 8 9 8 9 9 8 8 8 8
2 3 3 3 3 3 3 3 3 3 3 4 4 4 4 4 4 5 6 6 6 6 7 7 7 7 7 7 8 8 8 8 8 8 8 8 8 8 8 8 8 8 8
2 2 2 2 2 3 3 3 3 3 3 3 3 3 3 4 4 4 4 5 6 6 6 6 6 7 7 7 7 7 7 7 8 7 8 8 8 8 8 8 8 8 8
1 2 2 2 2 2 2 2 2 2 2 2 3 3 3 3 3 4 4 4 5 6 6 6 6 6 6 6 7 7 7 7 7 7 7 7 7 7 7 7 7 7 7
1 1 1 1 1 1 1 1 2 2 2 2 2 2 3 3 3 3 3 3 3 4 5 5 5 6 6 6 6 6 6 6 6 6 7 7 7 7 7 7 7 7 7
-0 -0 0 0 0 1 1 1 1 1 1 1 1 2 2 2 2 3 3 3 3 3 4 5 5 5 5 5 5 6 6 6 6 6 6 6 6 6 7 7 7 6 6
-1 -1 -1 -0 -0 -0 0 0 0 0 0 1 1 1 1 1 2 2 2 2 2 2 3 4 4 5 5 5 5 5 5 5 5 5 5 6 6 6 6 6 6 6 6
-2 -2 -1 -1 -1 -1 -1 -0 -0 -0 -0 0 0 0 1 1 1 1 2 2 2 2 2 3 4 4 4 4 4 4 4 5 5 5 5 5 5 5 5 5 6 6 5
-2 -2 -2 -2 -2 -1 -1 -1 -1 -1 -1 -1 -0 -0 0 0 1 1 1 1 2 2 2 3 3 3 3 3 4 4 4 4 4 4 4 4 5 5 5 5 5 5 5
-3 -3 -3 -3 -2 -2 -2 -2 -2 -2 -2 -1 -1 -1 -0 -0 -0 0 0 1 1 1 1 2 2 2 3 3 3 3 3 3 4 4 4 4 4 4 4 4 4 5 5
-4 -4 -4 -3 -3 -3 -3 -2 -2 -2 -2 -2 -2 -1 -1 -1 -1 -0 -0 0 0 1 1 1 1 2 2 2 2 3 3 3 3 3 3 3 3 3 3 4 4 4 4
-5 -4 -4 -4 -4 -3 -3 -3 -3 -3 -3 -3 -2 -2 -2 -1 -1 -1 -1 -0 -0 -0 0 0 1 1 1 2 2 2 2 2 2 2 3 3 3 3 3 3 3 4 4
-5 -5 -5 -5 -4 -4 -4 -4 -4 -4 -4 -3 -3 -3 -2 -2 -2 -1 -1 -1 -1 -1 -0 -0 0 0 1 1 1 1 2 2 2 2 2 2 2 2 2 2 3 3 3
-6 -6 -6 -5 -5 -5 -5 -5 -5 -5 -4 -4 -4 -4 -3 -3 -3 -2 -2 -2 -2 -1 -1 -1 -1 -0 -0 0 1 1 1 1 0 1 1 1 1 2 2 2 2 2 3
-6 -6 -6 -6 -6 -5 -5 -5 -5 -5 -5 -5 -5 -4 -4 -4 -3 -3 -3 -2 -2 -2 -2 -2 -1 -1 -1 -0 -0 -0 0 0 0 0 0 1 1 1 2 2 2 2 2
-7 -7 -7 -6 -6 -6 -6 -6 -6 -6 -6 -5 -5 -5 -5 -4 -4 -4 -3 -3 -3 -2 -2 -2 -2 -2 -1 -1 -1 -1 -1 -0 -0 -0 -0 -0 1 1 1 1 2 2 2
-8 -8 -7 -7 -7 -6 -6 -6 -6 -6 -6 -6 -6 -6 -5 -5 -5 -5 -4 -4 -3 -3 -3 -3 -3 -2 -2 -2 -2 -2 -2 -2 -2 -1 -1 -1 -0 0 1 1 1 1 1
-8 -8 -8 -8 -7 -7 -7 -7 -7 -7 -7 -7 -6 -6 -6 -6 -6 -5 -5 -4 -4 -4 -3 -3 -3 -3 -3 -2 -2 -2 -2 -2 -2 -2 -1 -2 -1 -1 -1 -0 0 0 0
Wind_Speed
5 5 5 6 6 5 4 4 4 4 4 3 3 2 2 2 1 1 1 1 1 2 2 3 4 6 7 8 8 7 7 7 8 8 8 7 7 7 6 7 7 7 7
5 5 4 5 5 5 4 3 3 2 2 2 2 2 2 1 1 1 1 1 0 1 2 2 4 4 7 7 7 7 7 7 8 8 7 7 6 6 6 6 6 6 6
4 4 4 4 5 5 4 3 3 3 2 2 2 2 1 1 1 1 1 1 1 0 1 2 3 3 6 7 7 7 7 6 7 7 7 7 6 6 6 6 6 5 5
4 4 4 4 5 4 3 2 1 1 1 1 1 1 1 1 0 0 1 1 1 0 1 2 3 2 5 7 7 8 7 7 6 6 7 6 6 5 5 5 5 5 5
4 4 3 4 5 3 3 2 1 0 0 1 2 1 1 0 0 0 1 1 0 1 1 1 2 2 3 6 7 7 7 6 6 5 6 7 6 5 5 5 5 5 6
4 3 3 4 4 2 2 2 1 1 0 1 2 2 2 2 1 1 1 0 1 1 2 2 2 1 3 5 7 7 7 7 6 6 6 7 7 6 6 6 5 5 5
4 3 3 3 3 1 1 2 1 1 1 1 1 2 2 2 2 1 1 1 0 1 1 2 1 2 3 5 7 7 8 8 7 7 6 6 7 7 7 7 7 7 6
5 3 3 3 3 2 1 1 1 0 0 0 0 0 1 2 1 2 1 1 1 0 0 1 2 1 2 3 4 5 7 8 8 8 7 6 7 6 7 8 8 8 7
5 4 3 3 3 2 1 2 1 1 1 1 1 1 1 2 2 2 1 1 1 1 1 1 2 2 2 3 3 4 4 6 8 9 8 8 7 7 8 8 8 8 8
5 5 4 3 2 2 2 2 2 1 2 2 2 2 2 1 1 2 2 1 1 2 2 1 2 2 2 3 4 4 4 5 7 8 9 8 8 8 8 8 8 8 8
5 5 4 3 2 2 3 3 3 3 3 3 2 2 2 2 2 2 3 2 2 2 2 2 2 2 3 3 3 4 5 5 6 7 8 9 10 9 9 9 9 9 9
4 5 5 3 3 3 3 3 4 4 4 4 3 2 2 2 2 2 3 3 4 3 3 3 3 3 4 4 4 5 5 5 7 8 9 9 10 10 10 10 10 9 8
4 5 4 3 4 4 4 4 3 4 4 4 4 4 4 4 3 3 3 3 4 3 2 3 4 4 4 5 5 6 7 7 7 8 10 10 10 10 10 11 11 11 10
4 5 5 5 5 5 5 4 3 4 4 4 5 4 4 4 3 3 3 3 3 3 3 4 2 4 4 5 6 7 8 9 9 10 10 10 10 9 10 11 11 12 11
4 5 5 5 5 5 5 4 3 4 4 4 5 5 4 4 4 4 4 4 4 5 6 4 2 2 4 6 6 6 8 10 11 11 11 10 9 10 10 10 11 11 11
5 5 5 5 5 5 5 3 4 4 4 5 4 5 5 5 4 4 4 4 5 6 6 4 4 3 4 6 7 8 9 10 11 11 11 10 10 9 9 10 11 11 11
5 5 5 6 5 5 4 4 4 5 5 5 5 5 6 6 5 5 5 5 5 5 7 5 4 3 4 5 5 7 8 8 9 12 12 11 10 10 10 9 9 10 11
5 5 5 5 6 5 5 5 6 5 6 6 6 6 7 5 6 6 6 6 6 5 6 7 5 4 4 5 5 5 5 6 7 9 11 11 10 10 10 10 9 10 11
6 6 5 5 6 6 6 6 6 6 7 7 7 7 7 7 7 6 6 7 6 6 5 6 6 4 4 3 4 4 4 4 5 7 9 10 11 10 10 10 10 10 11
6 6 6 6 6 6 7 7 7 7 7 7 8 8 8 8 8 8 7 7 6 6 6 6 6 5 4 3 4 4 4 4 4 5 6 8 9 10 11 11 11 11 12
6 6 7 7 6 6 6 7 8 7 7 8 7 8 8 9 11 9 8 7 7 7 6 6 6 5 5 4 5 5 5 4 5 3 4 5 5 6 8 11 12 12 13
6 6 7 7 7 6 10 11 9 7 7 7 8 7 8 9 10 12 13 12 11 9 8 7 7 7 7 6 5 6 5 4 5 3 4 5 5 6 7 8 11 12 13
7 7 7 7 8 9 12 12 12 8 7 7 7 7 7 7 9 7 10 12 12 14 13 10 10 9 8 7 6 7 7 6 6 4 4 6 5 7 7 9 11 12 12
7 7 8 8 8 9 12 12 12 8 7 7 7 7 8 7 8 8 8 8 9 9 10 9 10 10 9 8 8 8 7 6 4 4 5 6 5 6 6 8 11 11 11
7 7 8 8 8 10 12 12 11 6 7 7 7 7 7 7 10 11 9 8 8 8 9 11 12 11 11 10 8 5 5 5 6 5 4 5 4 4 5 6 9 11 11
8 8 8 7 8 9 11 12 11 6 6 6 6 7 9 9 11 11 8 8 8 7 6 6 7 8 7 7 9 8 7 7 5 4 4 4 3 3 3 4 5 6 7
Wind_Direction
11 11 9 11 10 14 20 20 22 24 29 33 47 55 38 41 40 48 44 48 134 169 166 172 162 167 167 163 156 152 143 147 145 142 138 133 133 134 132 123 119 116 115
15 10 3 2 1 3 7 13 14 15 13 16 31 44 38 35 53 35 28 31 259 206 190 196 181 173 171 166 162 159 153 147 152 147 143 141 143 147 146 138 128 123 121
11 9 359 352 349 353 5 18 21 30 27 13 2 14 43 60 61 48 52 58 69 272 219 211 200 189 182 172 164 162 159 155 158 160 156 152 147 146 146 153 149 142 135
6 6 0 348 346 356 4 22 21 39 24 355 327 316 358 64 48 82 78 61 79 357 265 239 215 213 195 183 172 170 165 165 164 168 170 165 164 163 159 163 168 165 156
358 1 353 347 352 360 5 3 12 17 335 333 312 308 309 269 252 138 85 57 75 198 237 239 214 232 211 192 184 176 173 171 174 176 181 181 179 179 179 180 176 181 178
348 355 352 351 355 359 357 356 353 3 320 313 314 312 295 280 255 205 209 126 62 203 210 212 192 237 219 202 197 187 186 184 183 186 186 189 191 193 193 195 196 191 191
346 347 342 343 345 327 317 342 344 354 13 17 16 332 308 266 247 246 221 173 139 225 202 187 190 240 223 210 207 199 195 196 197 196 194 196 200 206 204 206 207 205 199
335 333 332 320 313 302 326 345 10 330 301 75 129 252 294 297 274 251 226 213 224 116 216 193 186 221 215 200 207 205 208 206 206 204 206 212 213 209 211 213 212 212 210
331 323 319 312 295 271 260 274 270 243 246 260 252 186 196 240 295 283 255 220 219 221 252 242 211 221 220 195 201 208 216 221 215 213 215 221 226 220 215 217 218 220 218
327 323 320 303 282 273 255 258 259 255 225 244 272 278 264 216 227 279 281 247 228 230 239 264 234 224 217 195 205 214 219 222 225 226 225 226 230 231 223 223 223 225 227
318 318 316 302 286 281 266 265 260 248 242 234 247 273 287 280 243 225 260 268 268 239 240 241 225 219 221 208 210 221 220 226 234 239 238 235 235 237 232 229 229 229 231
307 309 309 305 293 284 273 267 252 242 243 245 243 245 240 237 238 232 241 257 269 265 252 235 228 223 216 224 227 231 229 235 243 244 245 244 241 239 239 236 231 231 232
287 287 293 293 292 286 279 273 259 247 241 241 241 246 244 248 257 251 235 250 267 277 253 240 234 220 221 235 233 228 234 240 246 250 250 250 247 244 242 243 234 233 232
282 285 285 285 287 287 282 272 266 263 252 246 250 249 256 257 259 257 238 230 259 260 245 241 232 219 235 249 242 231 239 243 246 252 254 256 253 247 244 243 239 232 230
299 301 293 289 288 284 281 271 257 259 259 255 252 248 250 256 253 260 257 228 223 244 248 241 227 238 250 250 254 246 248 245 244 249 253 254 253 247 244 241 239 233 230
299 303 297 287 284 282 281 274 263 259 258 260 257 249 248 249 254 252 255 249 232 234 247 238 235 254 259 257 253 247 249 250 244 246 247 246 247 246 242 239 238 232 232
303 294 293 287 280 276 272 266 269 265 260 264 262 254 255 252 249 253 253 251 244 235 249 259 247 253 241 242 250 246 248 248 247 244 243 242 243 245 243 240 239 233 229
305 294 285 284 279 274 268 261 264 267 261 261 262 258 259 260 251 249 248 247 248 243 242 259 262 253 247 244 234 234 248 246 250 249 242 242 241 242 239 236 240 236 230
305 300 289 280 280 275 266 261 258 262 260 257 256 256 256 252 253 248 247 248 247 253 243 244 255 253 253 247 236 238 239 242 253 250 246 244 243 242 241 237 237 239 234
304 302 295 284 280 278 273 268 263 259 259 260 256 254 253 248 248 249 247 245 243 245 244 239 245 251 248 244 226 224 237 233 246 253 251 250 245 244 242 241 239 240 239
302 300 297 294 287 279 270 264 261 256 258 260 260 257 254 256 256 255 252 241 235 237 243 246 243 243 241 235 232 220 237 241 246 228 234 243 241 240 244 244 241 240 239
300 300 297 294 291 285 283 279 274 263 262 262 265 264 262 263 267 268 265 256 247 239 237 241 246 240 238 235 236 230 225 237 248 209 218 243 229 239 240 238 245 244 240
299 297 293 290 287 285 289 286 281 274 266 262 263 263 268 269 272 265 267 261 256 251 245 240 243 245 240 228 225 234 229 232 241 223 222 242 227 238 241 243 243 244 243
292 290 289 287 285 287 292 291 287 276 269 264 261 258 262 266 265 267 261 254 253 249 248 245 240 244 247 234 222 230 237 246 253 230 215 238 231 239 249 246 241 240 243
289 285 285 285 282 285 291 292 291 278 274 273 270 267 265 261 268 273 267 262 259 259 263 259 257 256 257 246 229 225 225 230 246 238 212 227 231 241 245 241 239 238 246
285 288 287 286 281 280 288 291 290 277 276 276 274 271 273 274 275 273 265 260 257 258 259 267 270 268 261 249 235 225 221 224 238 244 210 213 231 231 247 238 233 238 244
Height
1522 1523 1524 1524 1525 1525 1526 1527 1528 1528 1529 1530 1531 1532 1533 1534 1535 1536 1538 1539 1540 1541 1542 1543 1544 1545 1546 1547 1548 1549 1550 1551 1552 1552 1553 1554 1555 1555 1556 1557 1558 1558 1559
1521 1521 1522 1523 1523 1523 1524 1525 1525 1526 1527 1528 1529 1530 1531 1532 1533 1534 1535 1536 1537 1538 1539 1540 1542 1543 1544 1545 1546 1547 1549 1549 1550 1551 1552 1553 1554 1555 1556 1556 1557 1558 1558
1519 1519 1519 1520 1521 1521 1522 1522 1523 1524 1525 1526 1527 1528 1528 1529 1530 1531 1532 1533 1534 1535 1537 1538 1539 1541 1542 1543 1544 1546 1547 1548 1549 1550 1551 1552 1553 1554 1555 1555 1556 1557 1558
1517 1517 1517 1518 1518 1519 1519 1520 1520 1521 1522 1523 1524 1525 1525 1526 1527 1528 1529 1531 1531 1532 1534 1536 1537 1538 1540 1541 1542 1544 1545 1546 1547 1549 1550 1551 1552 1553 1553 1554 1555 1556 1556
1514 1514 1515 1515 1516 1516 1517 1517 1518 1518 1519 1520 1521 1522 1523 1523 1524 1525 1526 1527 1528 1529 1531 1532 1534 1535 1537 1538 1540 1541 1543 1544 1545 1547 1548 1549 1550 1551 1552 1553 1554 1554 1555
1511 1512 1512 1513 1513 1513 1514 1514 1514 1515 1516 1517 1518 1519 1520 1520 1521 1522 1523 1524 1525 1526 1528 1529 1530 1532 1533 1535 1537 1538 1540 1541 1543 1544 1545 1547 1547 1548 1549 1551 1552 1552 1553
1509 1509 1509 1510 1510 1510 1510 1511 1511 1512 1513 1514 1515 1515 1516 1517 1518 1518 1519 1520 1522 1523 1524 1525 1526 1528 1530 1532 1533 1535 1537 1538 1540 1541 1543 1544 1545 1546 1547 1548 1549 1550 1551
1505 1505 1506 1506 1506 1507 1507 1507 1508 1508 1510 1511 1512 1512 1512 1514 1514 1514 1515 1516 1518 1519 1520 1521 1523 1524 1526 1528 1530 1531 1533 1535 1536 1538 1539 1541 1542 1543 1544 1545 1546 1548 1548
1502 1502 1502 1503 1503 1503 1503 1504 1505 1505 1506 1508 1509 1510 1510 1509 1509 1510 1511 1512 1514 1515 1516 1517 1518 1520 1522 1523 1525 1527 1529 1531 1533 1534 1536 1537 1538 1540 1540 1542 1543 1544 1545
1498 1498 1499 1499 1499 1499 1500 1501 1501 1502 1503 1504 1505 1506 1507 1507 1508 1506 1507 1508 1510 1511 1512 1513 1515 1516 1518 1520 1521 1523 1524 1526 1528 1530 1532 1533 1535 1536 1537 1538 1539 1541 1542
1494 1494 1495 1495 1495 1495 1496 1497 1497 1498 1499 1500 1500 1501 1502 1503 1504 1504 1503 1504 1505 1506 1508 1509 1511 1512 1514 1515 1517 1518 1520 1522 1524 1526 1527 1529 1531 1532 1533 1534 1535 1536 1537
1490 1490 1490 1490 1490 1491 1491 1492 1493 1493 1494 1495 1496 1497 1498 1499 1499 1500 1500 1500 1500 1501 1503 1505 1507 1508 1509 1511 1512 1513 1515 1517 1519 1520 1522 1524 1526 1527 1528 1529 1530 1532 1533
1485 1485 1485 1485 1485 1486 1487 1487 1488 1488 1489 1490 1491 1492 1493 1494 1495 1496 1497 1497 1497 1497 1498 1500 1502 1503 1505 1506 1507 1508 1510 1512 1514 1515 1517 1519 1520 1522 1523 1524 1525 1527 1528
1480 1480 1480 1480 1481 1481 1482 1482 1482 1483 1484 1485 1486 1487 1488 1489 1490 1491 1492 1493 1493 1493 1493 1494 1496 1497 1499 1500 1501 1503 1505 1507 1508 1510 1512 1513 1514 1516 1517 1519 1520 1521 1523
1476 1476 1476 1475 1475 1476 1476 1476 1476 1477 1478 1479 1480 1481 1482 1483 1484 1486 1487 1488 1489 1488 1487 1487 1489 1491 1494 1495 1496 1497 1499 1501 1503 1504 1506 1507 1509 1510 1511 1513 1515 1516 1517
1471 1471 1471 1470 1470 1471 1471 1471 1471 1471 1472 1473 1474 1475 1476 1477 1478 1480 1481 1482 1483 1484 1482 1481 1484 1485 1488 1489 1491 1492 1493 1495 1497 1498 1500 1501 1503 1504 1505 1507 1509 1510 1511
1467 1466 1466 1465 1465 1465 1465 1465 1465 1466 1466 1466 1468 1469 1470 1471 1472 1473 1475 1476 1477 1478 1476 1476 1478 1480 1482 1483 1485 1486 1487 1489 1490 1492 1493 1495 1496 1498 1499 1500 1502 1504 1505
1462 1461 1461 1460 1460 1459 1459 1459 1459 1459 1460 1460 1461 1462 1463 1464 1466 1467 1468 1469 1470 1471 1471 1470 1472 1473 1475 1476 1478 1480 1481 1483 1484 1485 1486 1488 1490 1491 1492 1494 1496 1497 1499
1457 1456 1456 1455 1455 1454 1454 1453 1453 1453 1454 1454 1454 1455 1456 1458 1459 1460 1461 1462 1463 1465 1465 1466 1466 1467 1468 1470 1471 1473 1474 1476 1477 1479 1480 1481 1483 1484 1486 1487 1489 1490 1492
1452 1451 1451 1450 1449 1449 1448 1447 1447 1447 1447 1448 1448 1449 1450 1451 1451 1453 1454 1455 1456 1458 1459 1460 1460 1461 1462 1463 1465 1466 1467 1469 1470 1472 1473 1474 1476 1477 1479 1480 1481 1483 1484
1448 1446 1446 1445 1444 1443 1442 1442 1442 1441 1441 1442 1442 1442 1443 1444 1445 1446 1447 1447 1450 1451 1452 1452 1453 1454 1455 1457 1458 1459 1460 1461 1463 1464 1466 1467 1469 1470 1471 1473 1474 1475 1477
1443 1442 1441 1439 1438 1438 1438 1438 1437 1436 1436 1436 1436 1436 1437 1437 1437 1438 1439 1441 1442 1444 1444 1445 1446 1447 1448 1450 1451 1453 1454 1455 1455 1457 1458 1460 1462 1462 1464 1465 1467 1468 1470
1438 1437 1436 1435 1433 1433 1433 1432 1432 1432 1430 1430 1430 1430 1430 1430 1431 1431 1431 1432 1434 1436 1438 1439 1439 1439 1441 1443 1445 1446 1447 1447 1448 1450 1452 1452 1455 1455 1457 1458 1460 1461 1462
1434 1433 1431 1430 1428 1427 1427 1426 1426 1426 1424 1424 1423 1424 1424 1424 1424 1424 1424 1425 1426 1428 1430 1431 1432 1433 1435 1437 1438 1439 1439 1441 1442 1444 1446 1445 1447 1448 1450 1451 1453 1454 1456
1429 1428 1426 1425 1423 1422 1422 1421 1421 1420 1418 1418 1418 1418 1418 1417 1418 1419 1419 1418 1419 1420 1422 1423 1424 1426 1427 1429 1431 1432 1433 1434 1433 1435 1438 1439 1439 1441 1442 1443 1445 1447 1448
1424 1423 1421 1419 1418 1416 1416 1416 1416 1414 1413 1412 1411 1411 1412 1411 1412 1412 1412 1412 1411 1412 1414 1415 1416 1417 1418 1420 1423 1424 1426 1427 1427 1428 1430 1432 1433 1434 1434 1435 1437 1439 1440